Find Starlink 36337

NORAD ID: 68716 Int'l Des: 2026-081 Owner: SPXS Country: US Constellation: starlink operational
LEOCIRCULAR

Current View

Loading 3D Globe...

About Starlink 36337

Description loading...

Upcoming Passes

Passes for default location (London). Set your location on the main map for personalized predictions.

Altitude History

Loading altitude history...

Two-Line Element Set

1 68716U 26081T 26150.61070594 .00077520 00000-0 13863-2 0 9995
2 68716 53.1586 13.7111 0001184 79.5081 280.6061 15.49344411 7282
Epoch: May 30, 2026 • Age: 13 hours

Current Status

Altitude 418.8 km
Velocity 7.66 km/s
Sub-Earth Point 24.77°N, 95.03°E
Launch Date Apr 14, 2026
Age 0.1 years
Type internet

Technical Details

Classification Payload
Mass 575.00 kg
Dry Mass 530.00 kg
Total Mass 575.00 kg
Length 0.30 m
Diameter 4.10 m
Span 29.00 m
Shape Box + pan
Manufacturer SPXS
Bus Type Starlink V2MO
Phase Status In Orbit
Owner/State SPXS/US

Most Searched